IRIDIUM 33 (24946 NORAD) Tracking and Keplerian Element Data

This shows tracking and keplerian element data for the satellite.

Feedback or suggestion? Click here.




ElementValue
Catalog24946
NameIRIDIUM 33
Epoch Orbit43363
Epoch Day34.92006693
Epoch Year2025
RAAN198.9793
Inclination86.3896
Eccentricity0.0008994
Argument of Perigee141.992
Mean Anonmoly218.1913
Mean Motion14.34748984
Decay Rate6.69E-06
L11 24946U 97051C 25034.92006693 .00000669 00000+0 22906-3 0 9998
L22 24946 86.3896 198.9793 0008994 141.9920 218.1913 14.34748984433635



Live tracking and technical data element details for IRIDIUM 33 (NORAD 24946). IRIDIUM 33 can be tracked NOW for your location showing map with azimuth and elevation plus other details from your city location.







IsCatalogInMostPopularTable: catalog: 24946, numindb: 549
Update: records affected: 1



GetName: 24946 IRIDIUM 33

Hit Count: updated at: Thu, 15 May 2025 19:15:24 GMT